Flag for Austria Weather past 2 weeks in Eferding, Upper Austria, Austria

Now
67 °F

Sunny.


Feels Like: 67 °F
Forecast: 50 / 71 °F
Wind: 6 mph from East

Location: Linz / Hoersching-Flughafen

Current Time: Sep 17, 2014 at 12:17:09 PM

Latest Report: Sep 17, 2014 at 11:00 AM


Visibility: 28 mi

Pressure: 29.96 "Hg

Humidity: 60%

Dew point: 52 °F

Location of EferdingLocation

Historic Weather in Eferding — Graph

°F

Eferding temperature yesterday

Maximum temperature yesterday: 71 °F (at 3:00 PM)
Minimum temperature yesterday: 56 °F (at 4:00 AM)
Average temperature yesterday: 62 °F

Past Weeks' High & Low Weather Summary

 TemperatureHumidityPressure
High79 °F (Sep 8, 5:00 PM)100% (Sep 6, 12:00 AM)30.15 "Hg (Sep 6, 12:00 AM)
Low53 °F (Sep 13, 4:00 AM)44% (Sep 8, 5:00 PM)29.88 "Hg (Sep 6, 5:00 PM)
Average61 °F85%30.01 "Hg
* Reported Sep 2 11:00 AM — Sep 17 11:00 AM, Eferding, Weather by CustomWeather, © 2014

Note: Actual official high and low records may vary slightly from our data, if they occured in-between our weather recording intervals... More about our weather records

Advertising

Eferding weather history for previous 24 hours

 ConditionsComfort  
Time TempWeatherWind HumidityBarometerVisibility
11:00 AM
Sep 17
67 °FSunny.6 mph60%29.96 "Hg28 mi
10:00 AM63 °FSunny.6 mph68%29.98 "Hg25 mi
9:00 AM60 °FSunny.5 mph76%29.98 "Hg18 mi
8:00 AM57 °FSunny.N/A84%29.99 "Hg17 mi
7:00 AM54 °FSunny.3 mph88%29.99 "Hg22 mi
6:00 AM55 °FClear.3 mph87%29.98 "Hg22 mi
5:00 AM55 °FClear.5 mph88%29.99 "Hg25 mi
4:00 AM55 °FPassing clouds.13 mph89%29.99 "Hg3 mi
3:00 AM56 °FCool.3 mph90%30.00 "Hg22 mi
2:00 AM56 °FCool.3 mph89%30.00 "Hg16 mi
1:00 AM58 °FCool.5 mph88%30.01 "Hg19 mi
12:00 AM58 °FCool.N/A86%30.01 "Hg22 mi
11:00 PM
Sep 16
58 °FPassing clouds.5 mph85%30.01 "Hg19 mi
10:00 PM60 °FClear.3 mph85%30.01 "Hg17 mi
9:00 PM62 °FClear.N/A81%30.00 "Hg19 mi
8:00 PM64 °FClear.3 mph77%29.99 "Hg12 mi
7:00 PM67 °FSunny.3 mph70%29.97 "Hg25 mi
6:00 PM70 °FPassing clouds.6 mph63%29.97 "Hg8 mi
5:00 PM71 °FPassing clouds.7 mph62%29.97 "Hg4 mi
4:00 PMN/APassing clouds.12 mphN/AN/A6 mi
3:00 PM71 °FPassing clouds.7 mph59%29.98 "Hg16 mi
2:00 PM70 °FPassing clouds.7 mph62%30.00 "Hg18 mi
1:00 PM69 °FScattered clouds.6 mph63%30.01 "Hg18 mi
12:00 PM67 °FPassing clouds.6 mph68%30.02 "Hg22 mi
Weather by CustomWeather, © 2014

See weather overviewHow to use our weather pages